Theta_e
308 308 307 307 306 307 307 307 307 307 307 306 305 306 307 308 309 310 310 311 311 312 312 311 310 309 308 308 308 309 309 309 309 311 311 313 316 313 312 311 315 320 313 322 341 343 341 338 335 343 347 346 346 347 350 352 354 355 356 357 353 355 357 356 357 356 355 356 356 358 358 358 357 356 356 355 356 354 352 353 351 353 351 348 348 349 349 349
309 309 309 308 307 306 307 307 307 308 307 306 305 306 307 308 309 309 310 311 311 312 312 312 311 310 309 308 308 309 309 309 310 313 314 314 314 313 313 311 316 319 314 330 344 339 337 335 333 341 347 346 346 347 351 354 354 355 356 353 352 356 356 356 358 357 356 356 357 358 357 359 358 357 356 355 355 354 354 352 352 352 350 349 349 349 349 349
309 310 309 309 309 308 307 306 306 307 306 306 306 306 307 308 309 309 310 311 311 312 311 312 312 310 309 308 309 309 309 312 317 321 322 320 315 316 315 311 318 317 318 336 342 334 334 333 333 341 345 347 348 348 351 354 354 355 356 355 356 356 355 356 358 358 357 357 358 358 357 358 357 357 356 356 355 354 353 351 353 353 350 350 348 348 348 347
309 310 309 309 309 309 308 307 307 306 306 306 306 307 307 308 308 309 310 310 311 312 312 312 311 311 309 308 309 308 310 317 327 332 329 323 316 318 315 312 318 316 324 340 336 332 334 332 334 339 345 347 348 350 351 354 354 354 354 355 356 354 354 357 357 357 358 359 357 357 358 358 358 357 357 357 354 352 352 351 351 352 351 349 348 347 347 346
310 310 310 310 310 310 310 309 308 307 307 306 307 307 308 308 309 309 310 310 311 311 312 312 312 312 309 308 309 308 313 322 332 335 329 321 317 319 313 313 318 317 331 339 331 331 332 333 334 338 345 346 346 349 351 354 354 353 353 353 353 349 350 355 357 357 357 359 357 357 357 358 358 356 356 359 355 351 350 349 349 352 351 348 347 346 345 345
310 311 311 311 311 310 310 310 309 309 308 308 308 308 308 309 309 310 310 311 311 311 312 312 312 311 309 309 308 308 317 327 332 330 325 318 317 316 312 315 317 322 336 336 330 331 330 334 335 339 346 343 344 346 350 355 353 352 352 353 349 346 346 352 355 357 357 358 357 356 356 358 359 356 356 357 357 353 349 348 348 350 350 348 347 346 345 344
311 312 313 313 313 312 311 311 310 310 310 309 309 309 309 309 310 310 311 311 311 311 311 312 312 310 309 309 308 312 320 328 330 325 320 316 314 312 312 315 317 328 340 334 329 329 330 336 336 341 344 341 343 345 351 354 352 353 351 351 346 344 344 347 354 357 358 357 357 356 356 359 359 355 354 357 358 353 349 348 348 350 350 348 346 345 344 343
312 313 313 313 314 314 313 312 312 311 311 310 309 309 309 310 310 311 312 311 312 312 311 312 311 310 309 307 314 322 323 327 329 322 317 314 311 311 313 316 321 336 341 332 330 329 331 337 337 341 341 339 342 343 350 352 351 352 350 349 344 343 342 342 352 357 358 358 358 358 358 359 358 355 355 357 358 352 350 349 349 350 348 348 346 344 344 342
313 313 313 313 314 314 314 314 314 313 312 311 310 310 310 310 311 312 313 312 312 312 311 312 310 310 309 307 317 327 326 328 325 320 316 312 311 311 314 318 327 340 340 330 329 327 331 336 337 340 339 340 340 342 350 351 349 350 350 347 342 342 341 340 350 356 357 358 358 359 358 358 357 357 356 357 357 352 350 348 349 349 348 348 345 345 344 342
313 313 313 314 314 314 314 314 314 314 313 313 311 309 310 310 312 313 313 313 312 311 312 312 310 309 308 310 320 325 328 329 322 320 318 311 310 311 318 324 331 340 335 328 328 325 330 334 336 338 337 339 340 341 348 349 347 348 348 345 340 342 344 341 348 356 357 356 358 358 357 358 358 357 356 357 357 353 351 349 348 347 347 347 345 346 344 342
313 313 313 314 314 314 314 314 314 314 314 314 312 310 310 312 313 314 314 314 312 312 312 311 309 309 308 315 326 326 327 328 324 325 320 313 312 316 325 329 330 333 329 327 327 325 329 330 334 337 335 338 340 340 347 349 345 345 345 342 340 342 344 343 348 355 356 357 357 356 356 357 357 356 357 357 357 355 352 349 349 347 346 346 345 346 343 343
312 312 313 313 313 314 314 314 314 314 314 314 313 310 310 312 314 314 314 314 312 312 311 310 309 308 312 321 326 325 328 329 328 329 325 321 321 323 329 329 327 328 327 327 326 326 327 327 331 335 334 337 338 340 345 348 345 343 342 340 340 342 344 344 349 355 354 357 357 356 355 355 357 357 357 357 356 355 352 349 349 347 347 345 345 346 344 344
312 312 312 312 313 313 314 314 314 314 314 314 313 311 312 313 314 314 314 313 312 311 309 309 307 307 318 327 324 324 330 328 329 332 330 327 327 328 329 327 326 327 326 327 325 325 326 325 329 331 333 337 338 339 342 347 345 342 341 340 339 342 345 347 348 353 355 355 356 356 351 352 357 356 356 358 356 356 352 350 349 347 347 346 346 346 345 345
313 312 312 312 312 312 313 313 314 315 314 315 312 311 312 314 314 314 313 312 311 309 308 308 307 312 322 329 322 324 329 329 328 332 332 330 329 328 328 326 326 325 325 325 324 324 325 325 327 329 334 337 338 338 338 342 343 341 340 340 339 339 343 349 347 351 356 355 356 355 350 353 357 356 356 356 356 357 353 351 349 348 347 346 347 345 344 345
312 312 312 312 312 312 313 313 314 314 314 314 313 312 313 314 314 314 312 311 311 308 308 307 308 318 329 328 323 323 325 329 327 330 331 329 327 327 327 326 325 325 325 324 325 325 325 325 325 328 335 337 337 337 337 339 341 342 337 335 338 337 341 349 346 349 356 354 356 353 351 354 356 355 356 355 356 356 353 353 350 349 349 346 347 345 344 346
312 312 312 312 312 312 312 313 314 314 315 314 313 313 314 314 315 314 312 312 313 309 312 316 314 321 331 328 324 321 324 328 327 329 329 327 325 325 326 326 325 325 324 324 326 325 324 325 326 328 335 337 335 335 336 335 336 341 338 331 334 335 339 346 347 353 355 353 357 352 351 355 354 356 356 356 358 356 354 354 351 351 350 347 347 345 345 345
312 312 312 311 311 312 312 313 314 314 315 314 313 314 313 314 315 314 312 312 314 311 316 327 324 323 328 328 325 322 324 327 325 327 326 326 327 324 324 325 324 324 323 323 324 324 324 325 327 327 331 335 333 334 332 328 329 336 338 333 334 336 338 343 348 355 353 353 356 353 355 356 354 357 357 356 358 356 355 353 354 354 350 350 347 345 345 345
313 313 312 312 311 312 312 313 314 315 315 313 314 314 314 314 314 313 313 314 316 316 318 324 325 324 326 326 325 324 326 327 325 326 325 327 328 325 324 323 324 324 324 324 323 324 323 323 326 325 328 332 334 333 328 327 329 331 334 332 333 336 340 344 348 353 354 355 355 353 357 358 352 354 357 357 358 356 355 353 353 354 352 351 348 346 345 345
314 314 314 313 313 313 313 313 314 315 314 314 314 314 314 314 314 315 318 319 320 323 323 321 323 325 324 324 326 324 326 327 325 325 326 328 328 326 325 323 323 324 325 324 322 324 323 324 326 324 326 330 333 333 330 333 336 334 336 334 332 334 339 345 347 350 355 354 352 352 355 356 352 352 355 356 358 357 356 354 353 353 354 353 350 347 345 344
315 315 314 314 314 314 314 314 314 315 314 314 314 316 318 319 320 321 323 322 322 322 323 320 321 324 323 323 324 323 324 324 325 325 325 328 327 327 326 324 324 324 325 324 322 324 324 323 325 324 325 328 332 336 334 337 337 335 338 336 333 334 337 345 346 347 355 352 348 348 350 353 352 351 356 356 356 357 355 354 354 353 354 354 350 348 345 344
314 314 314 314 313 313 314 314 315 314 314 314 314 319 324 321 322 322 322 322 321 319 320 320 319 323 324 322 322 321 322 324 326 326 325 327 327 328 327 325 324 323 324 325 322 324 323 322 325 325 325 328 330 334 336 336 337 336 335 335 333 333 336 345 346 343 351 350 345 344 348 351 352 350 353 355 355 356 355 354 355 353 354 354 352 349 346 346
315 315 315 314 313 313 313 314 314 314 314 314 314 319 323 319 317 318 318 320 320 318 319 319 318 321 322 322 321 320 321 324 325 326 326 326 326 326 327 325 323 322 324 325 323 323 323 322 325 327 327 331 330 332 335 336 336 335 335 333 329 332 335 337 340 339 344 346 344 345 346 348 351 348 346 348 353 355 354 355 355 355 356 354 353 351 348 347
315 316 316 316 314 313 313 314 314 314 313 314 316 319 320 318 317 317 316 318 319 318 317 317 318 321 322 321 320 319 321 322 324 326 325 325 326 326 326 325 323 322 323 324 323 321 321 322 326 328 329 333 334 333 337 336 336 336 334 331 329 333 332 329 335 338 341 345 345 345 347 348 347 342 339 339 346 353 354 355 355 354 356 355 355 352 349 348
316 317 317 317 315 313 313 313 314 314 314 316 320 320 318 317 317 318 317 318 319 318 317 316 317 320 321 321 319 319 320 319 322 326 324 324 325 325 326 325 324 323 323 325 324 323 322 323 326 330 331 334 335 335 337 334 333 335 335 333 331 333 333 331 336 339 338 341 343 344 347 350 348 341 341 340 344 351 353 354 355 354 354 354 355 353 351 349
317 317 318 317 316 314 314 314 315 317 317 318 319 318 317 318 318 317 318 318 318 317 316 316 318 320 319 319 318 319 319 319 321 324 323 323 324 324 325 325 323 323 324 324 324 324 324 325 328 331 333 334 335 335 335 333 330 330 334 335 334 335 334 334 336 335 331 332 339 339 337 343 349 342 345 346 345 349 353 354 356 357 356 353 354 354 354 351
317 317 317 316 315 315 317 318 317 318 318 318 319 318 317 319 318 317 319 319 317 316 316 316 318 319 318 318 318 318 318 318 321 321 321 322 323 323 324 325 325 323 325 325 324 324 325 327 330 332 334 333 333 332 333 334 329 326 332 335 336 337 335 333 333 330 326 329 339 338 333 337 344 344 350 355 351 350 353 355 356 359 358 355 356 355 353 353
318 317 315 316 315 314 317 320 317 317 319 319 318 318 318 319 318 317 318 317 315 315 317 316 318 318 318 318 318 317 317 317 320 320 319 321 322 322 323 325 325 325 326 324 322 323 326 330 331 331 334 333 330 330 332 334 328 326 332 335 335 336 335 334 333 329 329 333 337 338 336 335 340 347 354 357 354 352 353 354 354 358 358 357 357 356 353 353
318 317 315 316 315 314 315 317 317 319 320 319 318 317 319 318 317 318 319 315 314 316 318 318 317 317 317 317 317 317 317 318 319 319 319 320 320 322 323 325 325 325 327 324 320 323 327 330 331 331 331 330 328 328 331 333 330 330 332 333 334 334 335 334 333 329 331 331 326 330 333 333 338 349 353 356 356 354 353 352 354 356 356 357 357 355 354 353
317 317 316 315 315 315 314 315 319 320 318 318 318 318 319 318 317 319 320 317 315 316 319 317 316 317 317 317 317 318 319 319 319 319 319 318 319 321 322 324 326 326 327 325 322 325 328 331 331 332 330 330 329 329 331 332 331 331 331 333 333 333 335 334 332 329 328 328 323 326 330 332 339 347 350 355 356 354 354 353 354 356 355 356 355 354 354 354
317 317 316 316 317 319 318 316 318 318 317 318 318 318 319 317 318 317 316 317 316 316 318 316 316 317 317 317 316 318 319 320 320 319 319 318 320 320 322 324 325 325 326 326 325 327 329 330 331 331 329 328 329 331 332 331 331 331 330 331 330 331 333 332 332 329 326 325 324 327 329 330 339 347 348 351 353 351 354 354 354 355 354 354 354 354 354 354
317 317 316 316 317 319 319 319 319 317 317 317 318 318 318 318 319 317 315 317 315 316 316 316 317 317 317 316 316 318 319 319 320 319 319 319 320 321 322 323 324 324 324 325 325 326 328 327 328 329 327 326 327 328 330 331 330 330 330 329 326 326 328 327 327 327 325 324 324 329 329 328 336 344 348 346 347 346 349 350 351 354 355 354 355 356 356 356
317 317 317 316 316 316 318 320 320 317 316 317 318 319 320 319 318 316 316 315 314 315 316 316 317 316 317 317 318 318 319 319 320 319 319 319 319 320 321 323 323 322 320 321 322 323 326 326 326 327 326 326 326 326 327 328 328 329 328 326 322 320 322 322 323 323 323 324 327 329 329 331 335 343 344 344 344 343 344 345 347 349 353 353 355 357 357 356
317 317 317 317 316 316 318 319 317 315 316 317 320 321 321 319 316 315 315 314 314 316 316 317 316 317 317 317 318 319 318 319 319 320 320 320 320 321 321 322 323 322 320 320 319 318 320 323 323 323 324 326 326 324 323 323 325 327 325 322 319 318 320 321 322 322 322 323 327 329 328 333 337 341 342 344 343 344 345 346 346 348 349 351 353 355 355 356
317 317 318 317 316 316 317 317 316 315 317 320 321 322 321 318 316 315 314 314 315 316 317 317 316 317 317 318 318 319 319 318 320 320 320 320 320 320 321 321 322 322 322 320 318 317 316 317 320 321 322 324 324 324 323 322 324 326 326 325 321 319 321 320 320 321 321 321 324 326 325 330 335 340 341 342 342 344 345 344 345 347 348 349 351 352 353 355
317 317 318 319 319 318 316 315 315 315 318 322 322 321 319 316 315 315 315 315 316 316 316 317 317 317 317 318 318 318 319 318 319 320 319 319 319 320 320 321 321 322 321 318 317 318 315 316 320 320 322 323 322 324 324 323 323 325 326 325 321 322 323 320 319 320 320 320 321 324 327 333 338 341 340 340 341 342 343 344 345 345 347 347 349 352 352 353
318 320 321 321 320 318 317 315 314 316 319 323 321 318 317 315 315 316 315 316 316 316 316 316 316 315 315 317 318 318 319 319 318 319 319 319 319 319 320 320 321 321 320 320 318 317 315 316 320 321 321 323 322 323 324 323 322 324 324 322 323 328 325 319 318 319 319 319 320 325 331 336 338 339 339 340 340 340 342 343 343 344 346 346 347 349 350 352
320 324 322 319 318 316 316 314 314 317 321 322 319 317 316 317 317 316 317 316 316 316 316 314 315 315 314 315 316 318 319 318 318 318 317 317 317 318 319 319 320 320 320 321 320 320 317 316 320 320 320 322 323 323 323 324 324 322 320 322 325 328 327 323 319 318 318 317 319 328 332 332 334 337 340 339 339 339 340 341 343 343 344 346 348 348 349 350
319 322 320 318 317 316 316 314 315 318 322 321 319 317 316 317 317 317 317 317 316 317 316 314 315 316 315 314 315 318 318 316 316 318 316 317 317 317 318 320 319 320 321 320 321 323 321 316 318 321 320 321 323 322 321 323 325 323 322 324 325 322 321 323 321 319 317 316 319 327 330 330 332 336 339 339 340 339 339 339 340 342 343 344 346 347 348 349
319 323 321 317 317 317 316 315 317 320 322 320 317 317 317 317 317 318 317 317 317 317 317 316 316 317 317 315 316 317 317 315 316 317 316 317 317 317 318 319 320 320 321 321 321 322 322 317 316 320 321 321 321 321 319 320 323 324 324 325 325 323 321 321 322 321 318 317 319 325 329 332 334 338 340 340 340 338 339 338 338 341 342 343 346 347 347 349
321 323 321 318 317 317 317 317 319 321 322 320 318 317 318 317 317 317 317 317 318 317 318 317 317 317 317 317 316 316 317 317 317 317 317 317 317 317 318 318 319 320 320 321 321 321 323 320 316 319 321 319 319 320 319 320 321 322 321 321 322 323 323 323 323 321 319 318 318 321 329 334 336 338 341 339 338 338 338 338 339 340 340 341 344 345 346 347
321 321 319 318 318 317 318 319 321 320 319 318 318 317 318 318 318 318 317 317 318 317 318 318 317 317 317 317 317 317 317 317 317 317 317 318 317 316 317 317 318 319 319 320 320 320 322 321 317 317 317 317 318 321 321 321 321 321 321 321 322 322 322 321 321 321 319 318 318 321 328 334 336 337 338 337 338 337 338 339 339 339 339 340 342 343 343 345
321 321 319 318 317 318 319 320 319 319 319 317 317 317 317 319 318 318 318 318 318 317 318 319 318 318 317 317 317 317 317 317 317 317 318 318 318 316 316 317 318 319 320 319 319 319 321 322 318 316 316 317 319 321 320 320 321 322 322 323 324 323 321 318 318 320 319 318 321 325 330 335 336 336 338 337 337 337 338 338 338 338 338 338 340 341 341 342
321 320 319 317 317 318 319 319 318 318 318 317 318 317 318 319 318 318 318 318 318 318 318 318 318 318 318 317 317 317 318 318 317 318 318 317 317 316 316 318 319 320 320 319 319 319 319 321 319 317 319 320 319 319 320 320 321 321 322 323 324 323 323 321 321 322 321 319 319 323 331 335 335 336 338 337 337 337 336 337 337 337 337 337 338 339 339 339
319 319 319 317 317 318 319 320 319 318 318 317 318 317 317 318 318 318 318 318 318 318 317 317 318 318 318 318 318 318 317 317 317 318 318 317 316 315 316 318 319 320 319 319 320 318 319 320 319 317 317 317 317 317 318 318 319 320 322 323 323 323 324 323 324 323 323 322 318 321 331 336 334 335 337 335 336 337 335 336 336 336 336 335 335 336 336 337
319 319 319 317 317 318 319 320 319 318 318 318 318 317 317 317 317 318 317 318 319 318 318 317 317 318 318 317 318 318 317 318 318 318 318 317 316 315 316 317 318 318 317 318 320 319 319 321 321 319 317 316 317 317 317 318 319 320 322 321 322 323 323 323 322 320 320 323 322 325 332 335 335 335 335 334 334 334 334 335 334 335 335 334 334 334 334 335
322 321 320 318 318 318 318 318 319 319 318 319 319 317 317 317 316 317 318 318 318 318 318 318 318 318 318 318 318 317 318 318 318 319 319 317 315 315 315 316 316 316 316 317 318 319 320 320 321 322 319 319 320 319 319 320 319 318 319 320 321 322 323 323 320 319 321 321 323 331 335 334 334 336 334 334 333 332 334 334 333 334 334 333 334 333 332 333
321 320 320 320 319 318 319 318 319 319 319 319 319 318 317 317 316 316 317 317 318 318 318 318 318 318 318 318 319 318 319 319 318 319 319 317 316 315 315 316 315 314 316 317 317 319 320 318 319 321 319 318 320 319 319 320 319 318 317 318 320 321 323 323 319 322 325 322 323 334 337 333 333 335 333 333 333 332 333 333 333 333 333 333 333 332 332 332
319 320 319 320 321 320 320 319 319 319 318 318 318 317 317 317 317 317 317 317 317 318 318 318 318 319 319 319 319 319 320 320 320 320 319 318 317 316 316 316 315 314 316 317 316 319 320 318 317 318 317 317 317 317 318 318 318 319 318 317 319 319 322 323 322 325 328 324 326 335 336 333 334 333 332 333 333 332 333 333 332 332 332 333 333 333 333 332
319 320 317 317 321 320 319 318 319 319 318 318 318 318 318 317 317 317 317 317 317 317 318 319 317 318 318 319 321 322 321 320 321 321 321 319 318 318 318 317 315 316 316 316 317 318 319 319 318 318 316 316 316 316 316 317 317 317 317 318 319 319 322 324 325 326 328 329 331 334 333 332 332 331 331 331 332 333 333 332 332 332 331 332 332 333 333 332
322 322 321 320 319 320 319 318 320 319 317 318 319 318 318 317 316 316 317 318 317 316 318 318 317 317 317 319 321 321 321 321 322 321 320 319 318 319 319 318 317 316 316 316 317 316 317 318 319 317 316 316 316 315 315 316 316 315 316 317 317 319 321 323 324 326 327 328 329 332 332 332 331 331 331 331 331 333 332 332 332 331 331 331 331 331 332 332
321 320 322 324 321 319 320 319 321 320 318 319 320 318 318 317 316 316 317 317 318 317 317 317 317 318 318 319 319 319 319 319 320 319 319 318 318 318 318 317 317 317 316 316 316 315 316 318 318 316 315 315 315 315 314 315 315 314 315 316 317 317 320 321 323 325 325 326 328 329 331 331 330 331 331 331 331 331 332 332 332 331 331 331 330 330 331 331
321 319 320 322 320 318 320 320 320 321 320 320 319 319 318 317 317 318 317 316 317 317 317 318 318 318 319 319 318 317 317 318 317 317 317 316 316 316 316 315 316 317 317 316 316 316 317 317 316 314 314 314 314 314 314 314 313 312 314 317 317 317 320 322 324 326 327 328 328 328 329 329 330 330 329 330 331 331 331 331 331 330 330 329 329 329 329 330
Wind_Speed
12 12 12 12 12 12 11 10 9 8 9 9 9 9 9 10 10 10 10 9 9 9 9 9 9 9 8 7 7 7 9 11 10 11 12 8 9 11 11 13 15 17 18 17 16 16 16 15 15 14 14 12 12 11 9 9 7 7 4 2 3 4 5 5 5 4 5 8 10 10 10 10 11 10 11 11 11 15 15 14 13 12 17 21 27 32 31 30
13 13 12 12 12 11 12 11 10 9 8 8 8 9 10 10 11 11 11 10 10 9 8 9 9 9 9 7 6 7 8 9 10 13 12 8 9 11 11 13 16 18 20 19 19 18 17 16 16 16 15 12 11 10 7 7 8 5 3 2 2 4 6 7 6 5 6 10 12 11 11 10 11 14 12 11 14 15 14 15 16 18 22 26 30 31 30 30
14 14 13 12 12 11 11 11 10 9 8 8 8 9 10 11 11 12 12 11 11 10 8 8 9 9 9 7 6 7 7 9 12 13 8 7 10 9 11 14 18 19 20 19 19 18 15 14 15 16 15 11 10 9 7 7 6 3 2 2 1 3 6 9 7 7 7 12 14 11 10 9 10 13 11 11 15 14 13 15 17 21 27 29 30 31 30 29
14 14 14 13 13 12 11 10 10 9 9 9 8 9 10 11 12 12 12 12 11 11 9 8 8 8 8 7 7 6 7 9 7 5 5 6 8 8 11 15 19 20 20 16 17 16 13 12 14 17 14 10 10 10 8 8 6 2 2 3 2 3 5 9 10 11 9 10 13 11 10 8 8 9 7 11 13 10 12 16 18 22 28 30 30 30 29 28
14 14 14 14 13 13 12 11 10 9 10 10 10 11 11 12 12 13 13 13 12 11 9 8 7 7 8 6 6 5 6 5 3 5 6 7 7 8 12 17 20 22 19 15 16 15 13 13 14 16 14 10 10 10 8 8 7 4 2 6 4 2 4 11 13 12 11 9 9 11 11 9 10 7 3 7 8 7 13 17 19 22 27 31 31 30 28 28
13 14 13 13 13 13 13 13 11 10 10 10 11 12 12 13 13 14 14 13 12 11 9 8 6 6 6 6 6 4 4 3 4 1 7 6 6 9 14 19 23 24 18 16 16 15 14 14 15 16 13 10 9 9 8 8 8 2 4 9 5 4 2 12 14 12 14 11 6 9 10 10 12 9 4 6 4 5 14 18 20 22 26 29 30 29 28 27
14 14 13 13 13 13 13 13 13 12 11 11 11 12 13 14 14 14 14 13 12 10 8 7 6 5 5 5 5 4 10 8 3 2 5 3 6 11 17 21 25 24 17 17 18 16 15 15 16 15 11 9 9 9 8 9 9 5 5 9 2 3 2 8 14 13 16 14 9 10 11 10 10 9 6 5 4 8 14 18 20 23 25 27 28 27 27 26
13 14 14 13 13 13 13 14 14 13 12 11 11 12 13 14 14 13 13 12 10 9 7 6 5 4 4 4 4 8 12 6 1 3 3 2 9 16 19 23 27 21 16 19 18 16 15 16 16 13 10 7 9 9 7 9 9 7 6 4 2 1 0 3 11 14 14 14 12 12 10 8 7 9 6 5 8 11 14 19 21 24 25 25 26 26 26 25
13 14 14 14 14 13 13 13 14 14 13 12 12 13 13 13 13 12 11 10 9 8 6 5 4 3 4 3 5 10 4 4 1 2 2 7 14 19 22 26 26 17 15 19 17 16 15 15 16 13 8 6 9 10 8 9 7 7 6 2 3 1 2 2 9 14 13 13 11 10 8 8 8 9 6 3 8 12 14 20 22 23 25 25 25 25 25 24
13 13 13 14 14 13 13 13 13 13 13 12 12 12 12 12 11 11 11 10 9 7 5 4 3 3 4 3 7 7 7 6 2 2 5 9 15 20 22 23 22 15 16 19 16 17 14 13 14 11 8 6 8 9 10 8 4 8 8 4 5 2 1 3 7 13 13 14 12 8 7 8 6 5 4 3 7 12 16 20 21 22 23 24 25 24 24 23
14 13 13 13 14 14 14 14 13 13 13 13 12 12 11 10 10 10 10 9 8 6 5 4 2 4 4 4 11 4 9 6 5 6 7 11 15 19 19 19 19 15 16 17 16 16 14 12 10 9 5 4 7 9 12 9 3 7 9 7 6 2 2 4 7 11 11 12 12 10 8 6 2 2 5 8 10 13 17 20 21 21 22 23 24 24 23 22
15 14 13 13 14 14 13 14 14 13 13 12 12 11 10 9 9 9 9 8 7 6 4 3 3 5 4 7 13 3 7 7 9 9 10 12 14 17 16 16 17 15 14 15 15 15 14 10 10 12 5 3 7 7 9 12 7 8 9 8 7 5 4 4 6 11 9 9 14 13 10 6 4 4 8 10 12 14 17 19 21 20 21 23 23 23 22 22
16 15 14 14 14 14 13 14 14 13 13 12 11 10 9 8 8 8 8 7 5 5 3 3 4 6 4 8 8 4 5 8 11 10 11 12 12 13 13 15 15 13 12 13 13 13 13 10 11 15 8 7 7 3 3 10 10 9 10 9 5 6 5 4 5 11 9 8 16 12 5 6 7 7 10 12 13 16 18 19 21 20 20 22 23 22 22 22
17 17 16 15 15 14 13 13 14 13 12 12 10 9 8 8 7 6 5 4 3 3 3 4 5 6 6 6 4 6 8 9 11 11 11 11 12 12 13 15 14 11 10 11 10 10 12 10 11 14 11 12 7 1 4 9 10 9 10 9 5 6 4 3 6 9 8 6 13 9 2 7 9 8 13 15 16 17 17 19 20 20 21 22 22 22 22 22
17 18 18 17 16 15 13 12 13 11 11 12 9 8 8 7 6 4 2 1 0 2 3 3 6 6 9 7 4 8 12 12 12 12 11 11 12 12 14 15 12 9 9 8 8 9 10 10 12 12 11 13 7 3 8 8 8 9 9 8 6 5 3 5 7 8 8 6 9 6 1 7 9 10 14 18 20 19 18 18 19 20 21 22 22 22 22 22
17 17 18 17 16 15 13 12 12 10 10 10 7 6 7 6 3 2 1 2 2 2 5 3 4 6 8 4 8 11 12 12 13 13 11 11 11 12 14 14 11 9 9 7 5 8 10 10 12 13 12 11 7 6 8 7 8 8 8 7 6 6 4 6 5 9 10 8 9 6 2 5 8 9 16 19 20 19 19 17 18 19 21 22 21 22 22 22
18 18 17 16 14 14 13 12 11 9 8 8 5 6 6 5 1 2 1 2 1 2 5 1 3 8 8 1 8 13 13 13 15 13 12 10 9 11 14 13 12 11 9 7 5 7 10 11 11 11 11 9 8 8 8 9 8 8 8 6 7 8 4 4 4 8 9 5 7 6 3 3 8 12 17 17 17 17 20 20 19 18 20 21 20 21 22 22
19 18 16 14 13 13 12 11 10 8 7 5 4 5 4 4 1 2 2 2 0 2 3 4 6 7 8 8 12 15 14 14 16 14 13 11 9 11 13 12 13 13 11 9 8 10 11 12 10 8 9 8 9 9 9 9 8 9 9 6 8 7 2 2 3 8 9 4 6 9 4 4 9 13 15 15 17 16 16 19 21 19 19 20 20 21 22 22
19 17 16 14 13 13 13 11 8 7 5 3 2 4 4 3 3 4 5 5 7 6 1 8 14 4 0 13 14 13 15 14 15 14 13 12 10 12 12 11 13 15 12 9 11 13 12 10 10 8 8 9 11 12 11 9 8 11 10 8 8 5 3 1 3 6 9 2 6 9 6 7 8 10 13 13 16 15 9 11 18 20 18 19 19 20 22 22
17 17 16 15 14 13 13 11 8 6 4 3 2 4 5 6 6 6 9 12 14 11 5 7 18 4 5 14 13 12 14 14 15 15 14 13 13 14 12 12 14 14 12 9 10 13 13 9 9 10 10 13 13 12 11 10 9 10 11 10 9 6 6 7 6 8 12 5 4 7 7 9 6 5 11 11 14 13 7 7 15 19 17 19 19 20 21 21
15 15 15 15 14 12 11 9 8 5 4 5 4 7 7 4 4 0 6 13 16 14 8 7 13 8 2 9 11 14 14 14 15 15 15 15 15 14 13 14 13 11 11 12 10 11 12 9 10 13 13 14 14 12 12 10 8 10 10 11 10 6 8 11 10 11 16 7 2 7 7 8 6 3 7 8 11 14 15 14 14 17 18 18 19 19 21 21
14 15 15 15 15 13 10 7 6 4 5 6 5 8 6 6 5 4 4 9 11 13 12 9 10 8 4 5 8 13 14 15 15 16 16 16 17 14 13 14 11 9 12 12 10 9 10 10 12 14 13 12 12 12 10 8 9 11 8 8 8 6 6 9 10 10 12 7 4 10 8 7 8 3 2 4 7 11 18 21 16 15 17 17 18 20 20 21
14 15 15 16 16 13 9 6 4 3 6 8 5 6 4 4 4 5 6 10 7 11 13 12 12 9 9 9 9 13 15 14 15 18 18 17 18 15 12 13 12 11 13 12 10 9 8 10 13 13 11 10 10 10 8 8 10 9 7 7 6 7 6 5 9 10 10 6 6 9 8 5 6 4 2 3 6 8 6 15 19 17 16 15 16 19 21 22
14 15 15 16 17 12 7 4 1 3 7 8 6 4 3 2 4 6 7 10 6 9 12 12 13 12 11 11 13 17 15 13 15 17 18 18 17 12 10 13 12 11 12 13 14 11 8 10 13 12 10 9 9 9 10 9 7 8 9 7 6 9 8 3 6 7 8 7 9 8 8 3 3 4 3 3 6 7 9 6 18 20 18 16 15 17 20 22
15 16 15 14 14 10 5 2 1 3 6 7 6 3 2 3 4 7 7 9 6 8 9 11 13 10 9 10 14 18 13 11 15 17 19 19 16 10 9 12 12 10 12 15 14 11 10 12 14 13 9 10 11 10 12 10 7 9 10 9 10 11 8 6 7 6 7 8 10 8 3 1 4 6 4 2 5 7 5 7 7 13 17 18 16 15 18 20
15 15 13 12 11 7 5 2 2 3 6 6 3 2 2 3 4 6 6 7 6 8 9 13 14 9 9 13 16 14 10 8 10 14 19 18 15 11 9 11 10 9 12 14 10 7 9 9 10 12 11 12 13 10 12 12 9 7 8 11 12 9 7 7 8 7 6 5 6 8 4 3 4 4 2 2 2 4 5 2 4 5 9 14 15 15 18 21
15 14 12 11 9 5 3 1 1 3 5 4 2 1 2 4 5 4 5 7 6 8 10 14 12 9 11 15 18 11 6 11 10 11 17 15 12 10 9 9 9 9 10 10 8 7 9 9 9 12 12 11 11 9 10 11 10 8 9 14 13 9 7 9 8 6 5 6 6 8 6 6 4 1 3 2 1 2 3 1 3 5 6 10 12 14 19 20
13 13 11 10 8 5 3 0 3 3 3 1 2 3 3 5 5 4 6 5 5 7 9 10 8 9 10 14 19 10 4 15 12 10 14 13 12 11 10 8 10 9 10 10 8 7 10 11 11 13 11 9 9 8 8 10 10 6 3 8 11 12 12 10 9 7 6 6 6 8 10 6 3 3 2 2 2 1 1 1 5 7 7 10 12 15 19 18
12 12 10 9 8 6 4 3 2 3 2 2 4 4 4 6 5 6 7 2 4 5 8 9 7 10 12 14 16 10 6 10 8 12 14 12 14 11 8 7 13 10 9 13 9 6 9 10 11 14 11 8 9 10 8 9 10 5 5 1 7 11 13 11 9 8 7 8 7 9 12 7 3 2 2 2 2 1 2 3 7 9 9 13 15 17 20 20
10 11 11 9 7 5 4 1 3 4 3 4 4 4 5 6 5 7 5 3 4 6 7 8 10 13 15 14 12 11 10 5 5 15 14 12 16 13 7 5 12 10 10 14 8 3 8 7 8 11 5 3 7 8 5 5 11 9 5 3 8 9 10 9 7 7 7 8 8 10 12 8 4 1 1 2 2 2 4 5 6 8 10 16 19 20 22 21
9 11 11 11 7 3 5 3 3 3 4 4 4 5 7 6 6 6 3 2 3 7 8 8 12 15 16 15 10 10 11 7 10 14 11 10 14 13 7 3 7 7 9 12 6 3 7 7 7 6 3 2 5 3 2 3 10 9 5 6 8 7 7 7 7 8 8 9 9 11 13 8 4 3 4 5 4 3 2 3 5 8 9 12 17 17 15 14
9 10 11 13 10 4 5 4 4 6 5 3 4 7 7 5 5 5 3 4 4 7 9 9 12 14 15 13 10 10 10 9 12 13 10 10 10 10 10 5 7 9 8 11 10 8 8 6 7 5 2 5 5 3 6 7 8 7 7 9 8 7 8 7 7 8 9 8 8 12 12 5 6 7 8 8 6 5 5 5 3 4 7 8 10 11 10 11
9 11 11 13 12 6 6 7 8 8 6 4 6 8 7 4 3 2 3 5 4 5 8 10 13 16 16 13 10 12 10 8 11 12 11 12 9 9 8 5 7 8 6 10 10 8 7 5 7 7 7 9 8 7 6 6 9 9 8 8 7 6 8 8 8 8 9 8 8 12 10 7 6 7 10 10 8 7 7 6 5 4 5 8 5 4 8 12
10 11 12 12 13 9 7 8 8 7 5 6 8 7 6 3 0 2 1 3 4 5 8 11 14 16 15 11 9 11 10 8 9 8 8 9 8 9 7 6 6 5 6 10 10 8 7 5 8 7 7 12 13 9 4 4 8 11 9 9 9 7 7 7 8 8 8 8 10 11 8 8 8 7 10 12 10 10 9 9 8 7 6 7 8 6 3 9
10 10 11 11 13 12 9 7 6 6 7 7 8 6 4 1 2 0 1 2 5 8 10 12 13 12 11 9 9 10 6 6 9 8 8 9 7 7 7 5 4 5 8 7 8 9 7 5 8 5 5 12 13 5 5 9 7 9 9 10 8 7 7 7 8 9 9 8 9 8 3 6 8 8 11 13 11 10 11 11 10 9 9 8 9 11 9 6
8 7 9 9 8 9 8 6 4 4 7 8 7 3 0 3 3 2 2 1 4 8 11 13 12 11 9 8 8 8 4 5 9 9 6 4 3 3 2 2 1 6 8 4 5 9 7 6 10 7 5 8 6 3 6 9 5 6 9 10 6 4 7 8 9 10 10 9 8 8 8 8 10 9 10 12 11 10 10 11 12 12 12 12 12 11 10 8
6 5 5 6 5 6 7 6 4 3 7 7 4 2 2 3 3 3 1 4 5 5 9 10 8 7 8 8 9 10 8 7 8 7 5 5 4 5 2 1 3 7 8 7 4 4 3 6 10 9 7 7 4 5 8 9 8 5 6 6 4 2 7 7 6 9 11 10 8 11 12 11 9 7 8 10 10 11 10 10 12 13 13 14 15 14 11 7
6 6 2 4 6 7 7 6 4 5 8 7 1 1 3 4 3 3 1 4 4 3 7 6 5 4 7 8 8 11 11 8 8 7 6 6 3 4 4 2 3 6 9 10 5 3 3 4 9 8 6 8 7 6 8 9 11 8 4 6 6 5 6 5 5 7 10 10 7 12 14 10 7 6 8 8 7 9 9 9 10 11 13 14 14 14 14 13
6 8 4 4 5 6 5 5 6 8 9 5 2 3 3 5 5 4 2 2 1 3 6 5 5 5 6 8 8 10 9 7 7 6 4 3 2 3 3 3 4 6 8 11 7 1 4 2 6 7 7 8 8 8 8 9 11 9 6 6 6 6 6 7 7 6 7 10 9 11 11 6 5 6 8 8 6 6 8 8 8 11 13 14 16 16 15 15
8 9 3 5 3 4 4 6 10 10 5 0 2 3 4 5 7 6 3 2 2 3 4 4 7 4 3 8 9 7 5 5 5 3 2 3 4 4 4 4 5 6 6 8 7 2 5 4 4 7 8 7 7 5 3 2 5 7 7 7 6 5 6 6 7 8 7 9 9 9 8 6 5 5 7 8 5 5 6 7 8 12 13 14 16 17 16 16
9 6 5 4 2 3 7 10 8 5 1 3 4 6 4 4 5 6 4 1 2 3 5 2 3 4 5 7 7 6 4 5 5 3 4 5 4 4 4 5 5 6 5 5 5 1 3 5 4 7 7 6 4 5 4 7 5 3 6 7 7 8 7 5 8 9 8 8 6 4 7 7 5 4 6 6 5 5 5 6 9 12 13 14 16 17 17 18
9 3 5 3 3 5 11 7 1 3 2 4 4 6 3 4 3 4 3 2 2 1 3 4 4 3 3 4 5 5 4 4 4 4 5 6 7 7 6 6 6 7 6 3 2 3 4 6 4 4 3 4 8 7 4 7 8 7 6 4 3 6 8 8 8 6 7 10 4 6 7 5 3 4 6 6 5 6 6 7 9 11 12 13 15 16 17 18
6 2 4 2 3 7 10 3 3 1 3 5 3 5 4 4 4 4 3 3 3 2 2 2 4 3 1 2 4 6 4 4 4 5 6 8 8 9 7 7 8 7 6 2 2 4 5 6 3 3 4 5 7 4 1 3 5 8 6 4 4 5 5 6 4 3 5 11 8 6 7 5 4 6 7 7 8 7 7 8 10 11 12 13 15 17 17 19
3 3 4 3 1 7 8 1 3 2 4 4 3 5 5 6 8 6 6 6 5 3 3 4 3 2 3 2 2 4 3 1 3 5 5 6 6 7 8 9 8 7 7 6 4 5 4 3 3 3 5 5 4 5 5 5 5 7 4 1 5 7 9 8 6 4 5 7 6 3 6 7 6 6 8 9 9 8 9 10 10 11 12 13 15 16 17 19
3 1 2 4 0 4 4 4 2 3 5 4 4 5 4 4 6 7 7 7 7 5 4 4 4 4 4 3 3 3 1 1 3 4 5 7 6 6 7 9 9 8 9 10 10 8 3 1 1 3 4 4 5 4 3 5 8 6 2 0 3 6 8 7 6 6 6 4 6 2 7 10 8 8 8 8 8 8 9 10 9 11 12 13 15 15 17 19
6 2 2 3 1 1 4 5 3 2 4 3 2 2 2 4 5 5 6 5 6 7 5 4 3 3 3 3 4 4 2 3 4 5 6 7 6 5 6 7 9 9 9 10 11 8 3 0 2 3 3 2 2 3 4 1 6 7 5 3 2 2 4 6 7 5 5 5 2 7 13 14 13 12 10 9 8 7 8 9 9 10 11 13 14 15 16 18
6 2 2 2 1 2 4 3 2 2 1 0 0 0 0 3 4 2 4 4 3 4 4 4 2 0 3 3 4 5 4 5 6 6 7 6 6 7 5 5 7 7 5 5 6 5 3 2 1 1 3 4 4 5 5 4 2 4 4 3 0 1 3 7 7 3 6 6 3 11 16 15 14 13 11 10 8 7 8 8 9 9 10 12 13 14 16 18
3 3 3 3 3 1 3 3 4 3 3 2 0 1 1 2 2 3 3 2 1 2 2 2 2 2 3 2 2 5 5 6 7 6 6 6 5 7 5 4 5 3 3 3 3 4 5 2 2 2 1 2 3 3 3 3 2 2 0 0 1 2 3 5 4 4 6 3 5 11 14 14 14 12 11 10 8 8 8 8 8 9 9 10 12 14 16 18
1 3 3 1 3 3 4 3 3 3 5 3 1 2 2 3 4 4 4 2 2 2 3 2 4 3 4 2 0 4 3 2 5 6 4 4 4 3 3 4 3 1 1 1 2 2 5 1 2 2 2 1 2 2 1 2 1 2 2 1 2 3 2 2 2 2 2 4 9 12 13 12 11 11 11 10 9 8 7 7 8 8 8 9 10 13 16 17
5 4 2 0 1 3 2 1 1 2 4 1 1 3 3 3 5 4 4 5 3 3 2 2 5 3 4 3 3 5 4 3 5 7 3 2 2 1 0 1 2 2 1 1 1 1 3 0 1 3 4 3 1 2 3 3 4 5 5 3 4 5 3 3 1 1 2 5 7 10 12 11 9 10 11 10 9 8 6 7 8 8 8 8 9 11 14 15
7 4 3 3 2 2 1 0 1 2 3 2 1 2 2 3 6 6 6 8 6 5 4 4 6 4 5 7 7 7 7 5 7 8 3 2 2 2 2 2 2 1 1 1 1 1 3 1 3 5 6 5 5 5 5 4 5 8 7 7 7 6 5 5 2 0 1 5 8 9 9 8 8 10 11 10 10 9 7 6 7 8 8 8 9 10 11 13
6 3 3 6 1 1 2 1 1 2 2 5 4 3 3 5 6 3 4 6 7 7 6 5 5 4 6 9 9 8 8 7 8 6 4 4 4 3 3 3 2 3 2 1 1 1 2 2 3 5 6 4 7 5 4 4 6 8 7 9 10 7 5 3 3 3 2 2 6 6 5 7 9 10 10 10 10 9 7 6 6 7 7 7 8 9 10 11
Wind_Direction
0 359 359 358 354 349 344 334 325 316 309 305 301 305 312 316 317 318 321 322 319 309 302 302 302 303 298 294 292 292 296 295 295 283 269 255 233 228 224 213 202 192 184 174 174 183 184 190 194 189 192 196 213 224 216 222 237 252 255 296 326 26 43 36 45 75 119 131 141 152 155 146 136 151 158 152 154 142 136 134 123 116 125 130 132 137 140 142
355 354 356 357 354 353 347 339 332 323 314 308 305 308 311 314 316 317 319 320 321 313 302 302 303 305 302 294 293 293 296 299 290 278 269 253 240 230 221 203 193 191 179 173 182 186 185 190 188 188 193 196 209 210 206 217 223 249 298 325 351 28 49 68 75 92 134 142 141 150 154 153 149 156 160 153 152 144 138 134 126 120 124 129 134 139 142 144
352 351 351 351 350 351 346 340 335 328 322 314 310 311 311 313 313 314 316 317 322 318 305 300 304 306 303 298 293 292 302 303 286 273 261 243 237 227 218 198 187 187 177 176 187 187 190 192 185 191 198 202 205 196 198 209 215 259 299 307 75 142 100 90 94 100 136 145 140 150 153 156 156 154 161 155 146 147 146 137 132 128 129 135 139 143 144 147
349 348 347 347 345 343 341 337 333 330 325 319 314 310 309 310 310 313 313 315 319 318 310 297 302 307 303 299 287 297 317 301 272 218 213 241 237 223 209 190 182 178 171 178 190 190 197 195 189 198 205 209 203 199 206 194 198 232 221 290 17 142 112 98 103 110 138 144 137 147 144 148 156 160 181 163 150 147 148 142 140 137 137 141 144 147 148 148
346 345 344 343 341 337 333 329 327 327 322 319 314 309 307 307 308 311 310 312 314 316 312 297 300 305 301 296 283 305 320 295 147 158 247 263 241 216 195 182 175 167 164 182 194 195 201 196 194 206 216 217 199 202 213 183 193 238 277 273 292 357 81 103 102 116 139 132 132 149 148 153 151 161 213 153 146 141 144 144 141 142 144 145 147 149 149 151
344 343 341 340 337 333 329 324 323 320 318 315 310 306 304 304 306 309 310 309 309 311 308 298 300 302 299 285 282 302 281 287 73 236 270 265 233 199 179 175 167 160 167 191 195 196 201 195 198 207 220 222 202 207 210 188 196 225 297 261 269 353 50 108 105 125 136 128 143 153 155 168 151 142 95 83 93 122 133 138 139 144 146 146 147 149 151 154
343 341 339 339 336 332 327 322 321 319 318 312 306 304 302 305 307 309 310 307 306 306 301 296 297 296 295 275 280 282 252 265 19 308 290 262 207 172 167 169 163 160 178 199 195 197 199 195 200 206 219 222 207 211 200 191 199 191 236 248 238 24 334 114 118 132 137 135 149 157 164 175 154 130 107 106 130 126 126 134 138 141 145 146 147 150 152 154
341 338 336 336 335 331 325 321 321 321 320 313 307 303 302 307 309 312 311 307 304 300 292 290 293 287 277 253 264 266 244 239 1 316 328 189 166 156 162 165 162 165 190 202 195 198 200 198 203 205 219 223 207 210 194 191 203 209 219 232 224 154 345 118 115 117 129 136 146 159 163 160 136 118 129 168 142 130 133 135 138 141 145 148 149 151 151 154
339 336 333 331 331 328 323 320 319 320 321 317 310 304 306 310 311 314 309 305 302 294 283 280 286 268 254 221 256 265 215 122 220 304 60 154 154 154 163 164 167 178 199 199 196 200 202 202 204 207 230 235 202 202 203 203 208 233 250 255 266 311 92 169 121 120 128 137 148 152 151 148 136 129 146 194 132 138 145 136 140 146 146 149 151 152 152 154
338 335 332 329 326 323 319 317 317 319 320 318 313 308 310 313 314 314 307 303 296 284 275 272 271 243 225 198 258 258 114 106 198 110 102 147 151 155 165 171 176 192 198 194 198 202 205 208 207 217 259 264 206 201 205 212 217 229 248 255 257 319 113 192 138 137 137 139 150 147 144 145 139 144 149 148 140 149 149 140 145 148 146 152 152 152 154 155
338 335 331 328 324 320 317 314 315 317 318 317 314 311 313 316 316 312 303 296 287 275 266 260 242 220 194 217 261 255 106 122 142 120 127 140 152 160 166 179 186 195 196 195 202 204 209 215 216 217 240 251 204 205 208 212 240 220 238 247 217 228 187 169 143 146 142 133 137 139 130 123 133 165 157 163 160 156 153 146 148 150 148 153 153 152 155 157
337 334 330 326 322 320 316 312 312 314 317 316 313 315 316 319 316 310 304 293 280 268 253 237 215 191 183 246 254 250 100 147 143 134 145 141 156 165 170 184 188 196 198 198 205 205 213 220 228 224 234 293 205 201 212 206 228 230 236 239 187 186 186 154 159 150 140 129 137 147 135 142 203 163 170 181 163 158 159 149 148 151 150 153 154 153 156 158
336 333 330 326 320 319 317 311 310 313 315 315 316 318 319 323 314 305 303 293 278 264 234 205 197 174 213 252 227 168 122 155 151 145 152 152 161 170 178 185 185 198 204 205 207 205 217 222 234 236 250 272 220 161 216 205 221 234 234 238 189 194 171 121 184 142 120 136 152 173 160 158 184 156 173 183 169 167 163 155 152 152 152 155 155 155 159 159
334 330 327 325 321 318 317 310 309 312 313 313 318 320 324 325 311 308 311 295 273 253 205 186 181 173 233 250 159 172 167 152 160 158 158 162 163 170 176 179 184 200 206 209 214 208 218 224 237 246 241 245 252 60 220 212 221 232 234 236 213 214 162 129 212 143 124 165 164 191 220 154 168 160 172 180 182 173 160 161 158 152 155 157 157 159 162 161
331 327 324 323 321 319 316 309 308 311 309 310 318 325 329 326 310 310 324 342 29 208 164 168 170 181 240 234 165 187 172 158 172 166 163 166 163 169 170 176 185 193 199 207 218 208 212 224 229 242 232 231 269 271 218 211 214 225 231 226 213 224 168 176 215 146 140 175 170 195 173 147 160 161 177 190 192 170 155 168 164 156 158 158 160 162 163 163
330 326 323 323 320 316 313 306 306 311 308 308 318 326 332 338 322 255 271 82 64 123 126 115 181 212 260 227 159 175 171 172 178 167 169 168 164 170 167 173 180 178 187 196 214 202 206 224 222 231 233 222 234 235 219 208 205 218 229 228 215 213 184 181 174 131 147 168 177 187 105 143 158 174 188 193 194 167 151 167 166 162 162 159 163 163 164 164
336 334 330 326 319 313 308 303 306 310 305 304 314 323 336 349 328 208 209 139 49 101 135 100 237 234 265 274 164 179 178 178 175 169 173 172 169 170 166 174 179 175 181 188 207 199 200 217 216 224 235 227 222 223 225 215 201 209 222 229 222 213 195 163 119 132 156 166 170 149 96 165 166 185 189 182 190 175 160 168 168 167 165 161 165 165 165 166
346 343 339 331 320 311 305 304 310 309 302 297 300 314 331 343 305 192 200 203 190 135 193 218 209 241 242 198 190 186 176 169 169 172 173 174 171 167 171 178 176 175 181 186 197 197 196 206 211 217 222 224 224 216 222 221 203 209 214 214 213 207 167 135 155 157 148 133 161 143 130 165 157 176 177 173 192 190 174 170 162 164 169 165 168 168 167 168
351 346 343 335 326 317 309 310 313 306 294 268 265 301 302 279 243 217 212 210 200 200 276 188 191 266 131 172 181 174 167 163 165 172 173 174 170 165 173 177 175 179 185 184 187 193 195 200 209 218 213 211 218 216 226 236 221 213 209 222 220 183 116 179 218 148 124 134 186 156 146 143 153 175 159 168 193 185 180 182 163 162 170 169 171 171 168 170
352 347 346 340 334 324 316 316 313 300 267 226 226 263 262 241 227 204 195 210 223 240 317 180 194 235 99 151 154 144 152 162 169 175 175 172 168 168 172 175 178 187 197 186 175 188 198 207 209 215 215 207 213 221 234 245 239 223 205 220 232 181 159 190 198 147 133 159 192 150 141 134 154 174 139 164 197 171 159 198 176 166 168 172 174 173 169 170
357 354 354 349 341 330 322 315 305 292 231 205 209 237 261 297 291 202 187 217 228 237 255 208 210 242 155 144 147 151 157 167 175 174 174 173 171 173 173 179 185 191 207 191 168 183 200 220 216 213 221 212 210 218 231 235 230 235 214 209 224 188 162 168 173 164 149 152 211 159 137 132 160 171 132 172 202 176 165 182 185 173 173 175 175 174 168 169
1 360 358 355 347 337 329 311 295 278 209 188 196 235 273 352 343 340 300 256 225 213 228 220 225 247 216 167 165 170 170 170 173 172 173 176 182 185 172 184 199 189 199 193 174 182 199 228 223 211 221 218 208 210 224 225 213 230 219 204 219 179 145 143 155 175 150 127 220 181 143 132 152 155 162 197 217 196 173 172 180 178 178 175 173 175 170 171
358 357 356 355 350 344 333 317 290 238 187 176 194 243 280 355 331 312 295 279 235 194 213 213 212 214 195 197 187 183 189 180 172 171 174 183 192 197 181 188 208 194 193 195 188 191 194 220 222 209 215 215 205 199 208 218 215 228 218 209 221 180 178 165 159 173 143 128 208 166 117 116 134 133 224 243 240 251 213 170 170 178 184 177 174 176 172 174
353 351 352 352 351 351 341 331 283 204 176 189 236 262 292 322 318 317 282 273 259 186 198 201 200 202 190 187 183 193 202 183 175 172 175 192 194 196 199 197 209 204 196 197 199 207 203 210 213 202 202 204 200 200 207 216 212 219 222 221 218 202 207 167 140 164 145 167 202 141 94 98 162 176 223 255 223 250 296 221 176 174 175 171 177 180 176 177
350 349 349 349 354 9 20 30 126 181 184 209 241 237 282 298 311 319 287 267 244 170 178 188 196 200 173 166 179 200 210 179 182 178 176 199 196 184 204 203 213 211 192 197 205 214 215 207 201 188 185 204 210 208 207 215 219 214 218 223 224 225 218 143 138 190 186 183 196 175 128 132 189 200 204 233 222 210 260 284 216 174 161 165 177 181 181 182
348 351 352 351 359 22 43 67 124 180 202 205 203 191 278 303 307 310 287 259 208 156 161 177 187 189 175 179 180 202 224 177 173 173 176 203 205 196 209 194 214 223 188 194 210 222 215 196 188 184 188 209 220 220 208 211 228 218 200 213 229 242 230 183 177 217 220 169 190 210 194 115 176 212 180 168 261 224 194 261 269 188 168 176 177 180 190 188
347 356 1 1 5 11 3 346 159 195 209 184 161 246 286 293 302 305 267 248 193 155 155 164 175 183 183 181 177 196 208 147 149 172 180 202 206 218 235 188 202 226 187 190 212 218 201 168 174 195 199 210 219 220 205 204 228 233 203 204 215 224 225 221 223 244 230 161 181 216 178 135 156 137 52 93 49 282 207 232 261 216 203 205 193 197 206 195
344 354 4 9 16 18 3 249 194 226 243 164 223 267 291 286 292 279 252 234 149 147 150 146 159 174 169 175 188 210 146 142 166 178 179 202 199 209 235 201 206 214 183 194 202 192 188 171 181 201 207 213 214 217 203 198 221 242 206 199 210 216 224 233 235 240 243 204 197 204 180 152 118 111 70 63 102 151 163 234 252 236 216 221 219 214 215 201
336 347 358 6 19 25 32 123 184 275 296 263 254 266 285 283 281 257 252 220 143 159 149 140 155 173 171 176 194 215 178 170 184 158 167 205 204 218 268 231 217 202 179 212 212 168 181 181 190 203 210 218 211 215 206 195 210 195 94 165 229 226 227 236 237 229 236 238 225 204 190 163 89 113 122 66 76 132 129 167 230 236 225 225 220 214 218 205
327 339 350 355 10 13 354 179 205 291 289 248 259 276 271 267 254 234 225 182 173 163 147 156 166 173 177 177 186 196 187 178 132 148 170 195 196 222 280 256 226 200 183 220 235 156 168 172 201 202 194 250 230 217 189 193 227 210 142 197 228 224 226 230 237 238 228 228 226 212 200 178 117 118 175 124 130 154 157 168 189 205 223 232 222 215 218 203
321 332 343 348 353 322 297 258 205 278 275 260 272 263 252 241 240 243 208 166 176 153 156 170 164 169 181 181 179 183 179 156 145 160 177 182 186 207 216 213 229 199 187 210 207 153 164 170 210 198 103 284 255 235 155 222 250 234 188 209 212 203 219 218 216 231 231 224 221 212 202 180 132 150 156 130 119 114 112 113 139 162 182 213 218 213 215 204
317 325 334 339 339 309 286 281 259 264 257 262 262 244 241 225 230 247 184 181 199 172 170 164 158 171 183 179 167 170 172 157 165 175 174 176 185 195 197 199 196 188 197 200 183 172 178 176 187 181 189 237 241 215 191 208 236 226 205 215 212 192 199 212 208 215 225 225 221 213 199 148 100 124 124 107 96 77 57 52 65 125 137 160 199 207 201 208
318 323 327 333 333 315 278 271 264 259 247 248 252 244 248 240 239 266 186 174 178 175 171 160 167 181 182 175 167 168 169 161 177 188 179 181 186 178 195 239 215 205 211 195 183 173 169 152 160 177 199 210 226 231 199 192 205 209 214 214 214 203 193 207 210 209 223 217 206 212 196 145 124 123 112 105 94 80 73 66 51 47 94 128 152 196 193 194
321 326 328 337 344 331 293 274 263 249 229 238 249 246 249 243 236 291 222 136 143 172 179 167 174 186 179 170 170 170 168 163 176 189 178 185 192 173 183 227 226 259 260 204 188 186 184 161 169 179 167 181 211 242 273 274 213 203 220 220 218 222 207 212 214 209 220 208 190 203 196 156 153 130 113 113 102 90 87 78 66 56 63 92 102 89 134 185
325 334 340 352 357 343 319 301 272 235 214 230 243 244 251 232 104 218 45 110 160 166 171 170 170 177 166 159 172 174 171 166 175 190 188 187 190 171 171 181 195 283 286 231 188 191 198 142 136 125 118 173 200 236 277 274 233 194 217 228 225 232 229 229 228 219 221 213 191 188 148 115 138 138 126 118 105 92 84 74 67 63 59 60 84 97 103 146
334 338 347 358 351 327 314 307 287 218 211 240 254 255 311 52 25 353 39 291 211 164 169 176 173 172 162 159 172 174 184 187 185 193 184 147 81 78 102 82 321 302 313 297 216 196 186 126 131 142 148 180 211 250 238 251 251 196 207 217 213 256 270 247 226 222 223 220 194 148 110 115 137 144 133 122 111 94 75 66 62 58 60 58 52 64 87 118
324 300 333 5 357 338 330 313 301 223 227 254 276 329 35 70 4 342 33 281 266 183 180 178 172 181 173 167 170 169 176 181 187 191 168 144 76 34 353 23 341 318 332 325 280 205 177 132 152 175 169 168 211 241 231 253 272 230 205 230 230 270 290 278 240 221 214 216 189 141 138 150 153 150 138 126 112 97 77 60 58 53 52 57 50 40 42 59
313 262 264 43 23 2 349 321 291 233 244 256 189 47 18 66 35 7 356 276 265 218 221 186 165 215 191 175 166 164 175 179 184 185 165 168 134 26 322 317 13 342 325 312 298 192 207 143 148 177 168 159 186 215 218 236 256 267 311 301 262 223 231 246 253 226 205 214 195 149 151 158 149 143 137 120 102 97 86 61 53 52 47 50 53 46 36 30
293 251 216 78 21 345 341 315 271 244 252 261 141 110 53 66 56 41 34 275 239 287 275 182 170 242 199 168 155 156 182 192 178 179 163 160 120 49 359 339 358 351 325 307 311 217 236 211 148 172 162 156 182 202 204 207 222 249 286 269 243 240 223 211 231 234 207 216 204 159 148 132 110 112 108 101 87 79 81 69 52 47 45 46 49 46 43 40
277 251 171 85 355 323 311 279 262 251 240 244 81 85 69 64 62 62 48 291 268 326 324 166 183 232 157 150 156 156 190 188 157 160 125 106 98 83 49 10 341 347 337 298 296 275 246 250 152 154 161 169 180 189 220 243 208 221 238 222 203 225 230 215 232 242 229 222 210 179 156 118 100 105 99 100 97 71 70 78 66 50 43 43 47 43 42 45
278 259 104 75 326 306 279 264 261 265 154 94 69 72 48 1 43 68 65 340 296 340 348 345 185 182 146 151 159 156 167 156 137 123 115 103 71 75 59 15 340 334 326 266 249 242 258 249 176 152 176 186 123 78 3 342 343 294 242 224 204 210 218 217 227 231 237 244 234 177 150 121 98 100 103 106 104 83 72 77 73 58 46 43 45 44 41 42
271 275 74 34 309 278 273 263 275 334 44 79 68 73 40 315 9 53 55 33 356 20 1 3 49 110 147 145 149 158 158 138 133 118 99 78 46 49 49 8 334 315 308 259 164 38 327 270 219 138 135 123 90 66 356 335 334 317 291 285 268 225 218 219 220 218 238 249 234 104 114 116 97 103 113 116 101 85 74 71 70 60 50 46 47 45 42 41
288 8 68 29 290 274 276 253 124 5 67 88 68 64 42 3 32 43 36 26 12 52 90 63 54 49 84 123 150 151 124 77 84 92 92 89 64 49 39 8 342 324 319 314 96 22 316 262 238 87 84 91 94 95 344 341 305 273 259 284 296 271 261 261 271 316 267 244 224 152 133 128 126 124 126 132 121 108 94 76 69 62 52 49 51 47 41 40
340 31 61 65 268 268 279 262 143 133 103 122 136 104 69 32 30 35 42 35 22 50 80 72 62 61 87 119 149 130 123 102 94 88 92 101 78 48 39 19 3 8 14 14 17 355 314 237 223 200 178 170 163 176 184 186 228 242 228 258 285 285 291 289 292 300 269 263 278 243 147 126 132 138 135 135 123 108 98 83 71 66 57 50 52 50 43 40
287 241 84 80 244 272 319 12 58 124 128 144 138 126 121 77 39 27 39 41 29 35 63 65 60 83 106 137 144 125 155 183 119 102 97 104 95 63 48 32 22 35 36 7 341 326 308 264 265 239 208 197 183 175 186 191 197 207 199 202 261 273 284 283 273 261 244 267 321 349 123 125 132 135 126 121 111 99 92 84 74 68 62 54 51 48 47 44
286 249 123 103 111 50 49 37 22 103 138 154 130 123 133 116 89 32 20 32 36 36 50 59 63 103 121 148 146 133 125 120 135 145 123 116 113 82 53 47 45 41 29 357 333 319 301 317 0 342 349 15 54 45 7 285 181 172 171 183 226 281 285 263 254 269 274 265 280 109 123 133 139 136 126 116 109 101 91 83 77 72 64 60 56 51 52 49
296 326 29 25 61 99 101 82 35 46 80 28 97 122 89 122 126 80 12 14 41 38 37 42 10 178 135 141 131 109 93 106 122 128 115 107 112 107 84 63 64 41 359 332 328 319 279 211 169 322 2 23 22 29 16 353 94 121 143 168 187 337 284 252 247 312 330 286 198 133 133 137 137 136 127 117 108 98 93 86 78 74 66 62 60 55 56 52
310 29 42 341 313 4 69 48 26 59 88 66 45 215 155 126 114 76 55 57 67 328 329 72 54 33 77 100 137 118 107 110 113 112 113 116 128 137 129 90 76 39 310 307 359 321 282 232 144 244 273 30 7 13 4 347 39 73 23 244 285 272 259 256 266 336 330 294 155 142 140 133 132 134 125 115 108 93 89 88 83 80 75 69 61 53 52 50
0 67 79 305 310 11 53 45 17 70 84 66 63 58 57 97 91 55 36 46 99 11 332 125 110 73 77 42 11 127 111 106 126 122 118 125 141 167 145 116 104 78 318 344 45 310 281 335 93 255 243 89 355 340 303 294 264 225 230 213 266 267 251 263 297 3 27 110 130 144 141 127 126 131 123 119 114 92 76 81 84 73 65 69 65 52 47 46
14 27 49 212 76 58 62 114 220 125 108 114 149 79 43 68 94 81 24 8 68 86 21 110 109 93 106 91 79 101 63 13 116 126 122 124 143 248 24 78 70 57 32 357 63 241 270 13 118 250 234 180 209 255 225 246 257 237 213 198 230 231 214 231 247 118 152 148 142 146 139 124 116 120 125 132 125 104 89 88 83 64 47 52 59 51 45 43
19 27 351 318 74 71 324 59 229 208 138 128 83 96 86 77 88 89 54 32 44 76 71 92 99 91 101 95 80 79 69 54 89 107 96 34 42 50 43 23 351 24 109 118 75 236 255 194 159 232 239 180 168 207 206 207 241 239 224 211 213 214 216 217 194 121 221 172 159 159 155 140 131 132 139 144 133 118 107 89 80 76 61 51 52 47 41 40
12 37 320 303 295 161 258 173 168 272 83 68 45 53 77 92 92 73 54 54 54 63 66 77 100 110 106 96 78 64 66 71 77 85 79 48 52 71 69 55 10 3 55 119 211 242 266 247 175 219 243 172 152 186 198 195 226 237 224 205 203 208 213 194 137 69 11 202 185 179 149 128 140 158 164 154 138 125 113 96 81 81 75 64 58 49 40 35